Tracking 31027 objects as of 19-Jul-2025
HD Live streaming from Space Station
objects crossing your sky now

ONEWEB-0237

Track ONEWEB-0237 now!
10-day predictions
ONEWEB-0237 is classified as:


NORAD ID: 48770
Int'l Code: 2021-045D
Perigee: 1,207.2 km
Apogee: 1,210.6 km
Inclination: 87.9 °
Period: 109.5 minutes
Semi major axis: 7579 km
RCS: Unknown
Launch date: May 28, 2021
Source: United Kingdom (UK)
Launch site: VOSTOCHNY COSMODROME (VOSTO)
Your satellite tracking list
IRIDIUM 135
Track 1 satellite(s)




NASA's NSSDC Master Catalog

Two Line Element Set (TLE):
1 48770U 21045D   25199.79438311  .00000132  00000-0  31734-3 0  9997
2 48770  87.9083 325.6853 0002234  96.4115 263.7270 13.15549507200551
Source of the keplerian elements: AFSPC